Flag for Antigua and Barbuda Weather past 2 weeks in Saint John's, Antigua and Barbuda

88 °F

Partly sunny.

Feels Like: 100 °F
Forecast: 82 / 87 °F
Wind: 12 mph from East

Location: Vc Bird International Antigua Airport

Current Time: Oct 10, 2015 at 12:10:21 PM

Latest Report: Oct 10, 2015 at 11:00 AM

Visibility: N/A

Pressure: 30.01 "Hg

Humidity: 70%

Dew point: 77 °F

Location of Saint John'sLocation

Historic Weather in Saint John's — Graph


Saint John's temperature yesterday

Maximum temperature yesterday: 88 °F (at 10:00 AM)
Minimum temperature yesterday: 77 °F (at 12:00 AM)
Average temperature yesterday: 84 °F

Past Weeks' High & Low Weather Summary

High91 °F (Sep 30, 12:00 PM)94% (Sep 27, 5:00 AM)30.07 "Hg (Sep 27, 5:00 AM)
Low75 °F (Oct 8, 4:00 AM)49% (Sep 30, 12:00 PM)29.77 "Hg (Oct 1, 2:00 AM)
Average83 °F76%29.91 "Hg
* Reported Sep 25 11:00 AM — Oct 10 11:00 AM, Saint John's, Weather by CustomWeather, © 2015

Note: Actual official high and low records may vary slightly from our data, if they occured in-between our weather recording intervals... More about our weather records


Saint John's weather history for previous 24 hours

Time TempWeatherWind HumidityBarometerVisibility
11:00 AM
Sat, Oct 10
88 °FPartly sunny.12 mph70%30.01 "HgN/A
10:00 AM86 °FScattered clouds.14 mph75%30.01 "HgN/A
9:00 AM86 °FScattered clouds.15 mph75%30.01 "HgN/A
8:00 AM86 °FPassing clouds.12 mph70%29.98 "HgN/A
7:00 AM84 °FPassing clouds.13 mph74%29.98 "HgN/A
6:00 AM82 °FPassing clouds.12 mph79%29.95 "HgN/A
5:00 AM82 °FPassing clouds.12 mph79%29.95 "HgN/A
4:00 AM84 °FPassing clouds.13 mph74%29.95 "HgN/A
3:00 AM82 °FPassing clouds.12 mph79%29.95 "HgN/A
2:00 AM82 °FSprinkles. Passing clouds.14 mph79%29.95 "HgN/A
1:00 AM84 °FPassing clouds.10 mph74%29.98 "HgN/A
12:00 AM84 °FPassing clouds.12 mph74%29.98 "HgN/A
11:00 PM
Fri, Oct 9
84 °FPassing clouds.14 mph74%30.01 "HgN/A
10:00 PM84 °FPassing clouds.13 mph74%30.01 "HgN/A
9:00 PM84 °FPassing clouds.14 mph79%30.01 "HgN/A
8:00 PM84 °FPassing clouds.14 mph79%29.98 "HgN/A
7:00 PM84 °FPassing clouds.12 mph79%29.95 "HgN/A
6:00 PM84 °FPassing clouds.10 mph74%29.95 "HgN/A
5:00 PM84 °FScattered clouds.13 mph74%29.95 "HgN/A
4:00 PM86 °FPassing clouds.14 mph75%29.92 "HgN/A
3:00 PM86 °FScattered clouds.14 mph75%29.95 "HgN/A
2:00 PM88 °FPassing clouds.13 mph66%29.95 "HgN/A
1:00 PM88 °FPassing clouds.15 mph70%29.98 "HgN/A
12:00 PM88 °FScattered showers. Scattered clouds.14 mph70%30.01 "HgN/A
Weather by CustomWeather, © 2015

See weather overviewHow to use our weather pages